Location: Belfast
(54.5830°N, 5.9330°W)
Time: 12:54:13
(UTC+01:00)

ISS - Pass Details

Date: 24 May 2018
Orbit: 402 x 407 km, 51.6° (Epoch: 20 May)

Event Time Altitude Azimuth Distance (km) Brightness Sun altitude
Rises 01:53:19 0° 273° (W) 2,321 0.0 -14.4°
Reaches altitude 10° 01:55:29 10° 265° (W) 1,460 -1.1 -14.3°
Maximum altitude 01:58:31 36° 197° (SSW) 663 -3.3 -14.2°
Enters shadow 02:00:12 21° 143° (SE) 981 -2.3 -14.2°
